Location: Stara Lesna
(49.1528°N, 20.2911°E)
Time: 11:28:20
(UTC+02:00)

BREEZE-M DEB (TANK) - Pass Details

Date: 21 September 2019
Orbit: 420 x 13864 km, 45.9° (Epoch: 14 October)

Event Time Altitude Azimuth Distance (km) Brightness Sun altitude
Exits shadow 03:48:42 50° 238° (WSW) 1,396 3.8 -24.6°
Maximum altitude 03:50:27 72° 172° (S) 1,418 4.1 -24.4°
Drops below altitude 10° 04:08:40 10° 92° (E) 7,869 8.9 -21.8°
Sets 04:20:02 0° 93° (E) 11,300 10.0 -20.2°
